Location: Allaines
(49.9632°N, 2.9458°E)
Time: 17:49:00
(UTC+00:00)

SL-16 R/B - Pass Details

Date: 09 April 2020
Orbit: 842 x 846 km, 71.0° (Epoch: 25 May)

Event Time Altitude Azimuth Distance (km) Brightness Sun altitude
Rises 23:11:53 0° 329° (NNW) 3,416 6.3 -31.4°
Reaches altitude 10° 23:14:21 10° 326° (NNW) 2,477 5.4 -31.5°
Enters shadow 23:18:36 49° 303° (WNW) 1,086 2.9 -31.6°
